Location: Aalen
(48.8330°N, 10.1000°E)
Time: 01:28:42
(UTC+02:00)

Tiros 1 - All Passes

Search period start: 29 July 2021 00:00
Search period end: 08 August 2021 00:00
Orbit: 630 x 663 km, 48.4° (Epoch: 28 July)

Date Brightness Start Highest point End Pass type
(mag) Time Alt. Az. Time Alt. Az. Time Alt. Az.
29 Jul - 01:10:47 10° W 01:15:25 59° SSW 01:19:59 10° ESE visible
29 Jul - 02:53:31 10° W 02:56:59 21° SW 03:00:26 10° S visible
29 Jul - 20:30:49 10° SW 20:35:10 36° SSE 20:39:29 10° E daylight
29 Jul - 22:12:18 10° WSW 22:17:03 78° S 22:21:46 10° E visible
29 Jul - 23:54:31 10° W 23:59:15 80° S 00:03:56 10° ESE visible
30 Jul - 01:36:49 10° W 01:41:11 38° SSW 01:45:28 10° SE visible
30 Jul - 03:21:40 10° SW 03:22:23 10° SW 03:23:06 10° SW night (unlit)
30 Jul - 19:15:56 10° S 19:19:21 20° SE 19:22:45 10° E daylight
30 Jul - 20:56:15 10° WSW 21:00:55 56° SSE 21:05:33 10° E daylight
30 Jul - 22:38:15 10° W 22:43:02 87° S 22:47:44 10° E visible
31 Jul - 00:20:30 10° W 00:25:10 62° SSW 00:29:46 10° ESE visible
31 Jul - 02:03:10 10° W 02:06:47 22° SW 02:10:21 10° SSE visible
31 Jul - 19:40:37 10° SSW 19:44:55 34° SSE 19:49:13 10° E daylight
31 Jul - 21:22:02 10° WSW 21:26:48 76° SSE 21:31:32 10° E daylight
31 Jul - 23:04:14 10° W 23:09:00 81° S 23:13:42 10° ESE visible
01 Aug - 00:46:32 10° W 00:50:57 40° SSW 00:55:18 10° SE visible
01 Aug - 02:30:43 10° WSW 02:32:12 11° SW 02:33:40 10° SSW visible
01 Aug - 18:25:51 10° S 18:29:08 18° SE 18:32:24 10° E daylight
01 Aug - 20:06:00 10° SW 20:10:40 54° SSE 20:15:18 10° E daylight
01 Aug - 21:47:58 10° W 21:52:45 86° S 21:57:30 10° E visible
01 Aug - 23:30:13 10° W 23:34:55 64° SSW 23:39:33 10° ESE visible
02 Aug - 01:12:49 10° W 01:16:34 24° SW 01:20:16 10° SSE visible
02 Aug - 18:50:26 10° SSW 18:54:41 32° SSE 18:58:56 10° E daylight
02 Aug - 20:31:45 10° WSW 20:36:32 75° SSE 20:41:16 10° E daylight
02 Aug - 22:13:58 10° W 22:18:44 83° S 22:23:27 10° E visible
02 Aug - 23:56:15 10° W 00:00:43 42° SSW 00:05:07 10° SE visible
03 Aug - 01:40:04 10° WSW 01:42:01 12° SW 01:43:57 10° SSW visible
03 Aug - 17:35:48 10° S 17:38:54 17° SE 17:42:01 10° E daylight
03 Aug - 19:15:46 10° SW 19:20:24 52° SSE 19:25:02 10° E daylight
03 Aug - 20:57:41 10° W 21:02:29 86° S 21:07:14 10° E daylight
03 Aug - 22:39:56 10° W 22:44:40 66° SSW 22:49:19 10° ESE visible
04 Aug - 00:22:29 10° W 00:26:21 25° SW 00:30:11 10° SSE visible
04 Aug - 18:00:15 10° SSW 18:04:27 31° SSE 18:08:38 10° E daylight
04 Aug - 19:41:30 10° WSW 19:46:16 73° SSE 19:51:01 10° E daylight
04 Aug - 21:23:40 10° W 21:28:28 84° S 21:33:12 10° E visible
04 Aug - 23:05:57 10° W 23:10:28 45° SSW 23:14:56 10° SE visible
05 Aug - 00:49:30 10° WSW 00:51:49 14° SW 00:54:06 10° SSW visible
05 Aug - 16:45:47 10° S 16:48:42 16° SE 16:51:37 10° E daylight
05 Aug - 18:25:31 10° SW 18:30:09 50° SSE 18:34:46 10° E daylight
05 Aug - 20:07:24 10° W 20:12:13 85° S 20:16:59 10° E daylight
05 Aug - 21:49:39 10° W 21:54:24 69° SSW 21:59:05 10° ESE visible
05 Aug - 23:32:09 10° W 23:36:08 27° SW 23:40:04 10° SSE visible
06 Aug - 17:10:06 10° SSW 17:14:13 29° SE 17:18:20 10° E daylight
06 Aug - 18:51:13 10° WSW 18:56:00 71° SSE 19:00:45 10° E daylight
06 Aug - 20:33:23 10° W 20:38:12 85° S 20:42:57 10° E daylight
06 Aug - 22:15:39 10° W 22:20:14 47° SSW 22:24:44 10° SE visible
06 Aug - 23:59:00 10° WSW 00:01:37 15° SW 00:04:12 10° S visible
07 Aug - 15:55:46 10° S 15:58:29 15° SE 16:01:11 10° ESE daylight
07 Aug - 17:35:18 10° SW 17:39:54 47° SSE 17:44:30 10° E daylight
07 Aug - 19:17:07 10° W 19:21:56 85° S 19:26:43 10° E daylight
07 Aug - 20:59:22 10° W 21:04:08 71° SSW 21:08:51 10° ESE daylight
07 Aug - 22:41:50 10° W 22:45:54 29° SW 22:49:56 10° SSE visible
